Location: ??????????
(44.2167°N, 135.5333°E)
Time: 14:32:45
(UTC+00:00)

Cosmos 1862 Rocket - Pass Details

Date: 15 June 2025
Orbit: 597 x 628 km, 82.5° (Epoch: 15 July)

Event Time Altitude Azimuth Distance (km) Brightness Sun altitude
Exits shadow 14:21:30 35° 241° (WSW) 1,020 4.4 -21.9°
Maximum altitude 14:22:46 44° 283° (WNW) 868 4.4 -22.0°
Drops below altitude 10° 14:27:00 10° 356° (N) 1,996 7.3 -22.1°
Sets 14:29:19 0° 3° (N) 2,902 8.4 -22.1°
